Location: Austin
(30.3000°N, 97.7500°W)
Time: 03:15:20
(UTC-05:00)

COSMOS 2428 - Pass Details

Date: 18 March 2023
Orbit: 843 x 858 km, 70.9° (Epoch: 01 April)

Event Time Altitude Azimuth Distance (km) Brightness Sun altitude
Rises 22:00:59 0° 346° (NNW) 3,426 6.3 -30.5°
Reaches altitude 10° 22:03:31 10° 351° (N) 2,489 5.4 -31.0°
Enters shadow 22:06:16 28° 4° (N) 1,549 4.1 -31.6°
